Location: ????????
(55.0559°N, 39.1270°E)
Time: 00:01:37
(UTC+00:00)

Cosmos 2233 Rocket - Pass Details

Date: 15 November 2025
Orbit: 952 x 989 km, 82.9° (Epoch: 12 December)

Event Time Altitude Azimuth Distance (km) Brightness Sun altitude
Rises 02:37:53 0° 346° (NNW) 3,714 6.9 -19.4°
Reaches altitude 10° 02:40:33 10° 339° (NNW) 2,758 6.1 -19.0°
Maximum altitude 02:46:24 42° 272° (W) 1,376 4.3 -18.2°
Drops below altitude 10° 02:52:12 10° 204° (SSW) 2,721 6.2 -17.3°
Sets 02:54:48 0° 197° (SSW) 3,658 6.9 -17.0°
